Wind_Speed
10 12 12 12 11 7 2 3 4 5 8 9 11 11 10 6 6 8 7 6 6 6 6 6 5 5 6 6 6 6 6 7 7 8 8 9 10 10 10 10 9 8 7 9 13 17 17 14 11
9 9 8 8 5 3 1 2 2 7 7 6 9 11 10 8 8 8 8 7 7 7 8 7 7 7 8 8 8 7 6 5 4 5 6 7 9 9 9 9 8 8 7 9 15 17 15 13 11
9 8 4 2 3 5 6 5 7 10 7 6 8 9 9 7 7 8 8 9 8 8 9 9 9 9 9 10 9 8 7 5 4 4 5 6 7 8 8 9 8 8 8 10 16 16 13 12 12
9 8 5 6 8 9 10 9 10 13 9 6 4 5 5 6 7 7 8 9 9 8 10 10 10 10 10 10 10 10 9 8 8 9 10 10 10 10 10 10 9 9 10 13 16 15 13 12 12
12 10 7 8 16 15 13 16 18 15 11 4 3 6 5 6 7 8 8 9 8 8 9 10 11 11 11 12 12 12 13 13 14 16 17 17 16 15 15 13 11 11 12 14 15 14 14 14 14
16 13 10 9 14 12 12 15 17 17 14 7 8 8 7 7 9 10 10 10 10 10 10 11 12 13 13 14 15 16 17 19 20 22 23 23 22 20 19 18 15 15 17 17 17 17 16 17 18
18 15 8 5 9 11 10 11 13 16 13 9 11 13 13 11 12 14 14 15 15 14 15 16 17 18 18 19 20 20 22 23 25 27 27 26 25 24 22 21 20 20 21 21 20 21 21 22 23
19 14 9 7 10 7 10 11 13 11 10 9 11 16 14 10 12 16 17 19 20 21 21 21 22 23 24 24 24 24 24 26 27 28 28 27 26 25 24 23 23 24 24 24 24 24 25 26 26
20 15 12 13 18 11 10 12 15 12 9 10 14 16 13 13 16 19 21 22 25 25 27 28 28 28 28 27 27 26 26 26 27 27 27 26 26 25 24 24 25 26 26 27 28 29 29 30 30
19 15 16 19 20 17 9 11 17 16 13 12 15 18 20 23 25 25 25 26 29 30 31 33 31 29 28 28 28 27 28 27 27 26 27 27 27 25 24 23 24 26 27 28 30 31 32 32 32
18 16 20 24 23 22 17 14 18 20 20 18 17 21 26 28 27 26 28 30 32 33 34 35 34 31 29 29 28 27 28 27 25 25 25 26 27 25 24 23 24 26 26 26 27 27 29 29 30
19 16 20 28 29 27 26 23 20 24 27 28 28 29 31 31 32 33 33 32 33 34 35 35 36 34 31 30 29 28 26 25 23 23 23 24 25 24 23 22 23 23 22 20 19 19 21 22 23
21 20 20 24 30 31 31 30 26 27 29 30 30 31 32 35 36 37 37 36 35 34 34 33 33 33 32 30 29 28 26 25 24 24 24 23 24 24 24 24 23 22 20 18 18 18 20 22 23
20 20 19 19 23 31 34 32 29 27 28 28 27 28 31 36 40 41 40 40 43 40 37 33 31 32 33 32 31 29 27 25 25 25 24 24 24 24 23 22 21 21 21 20 19 20 21 22 23
20 20 19 20 21 22 27 28 25 25 26 26 27 29 33 38 42 43 41 41 48 43 38 35 34 36 37 35 32 29 27 27 25 23 22 24 25 25 24 23 23 22 21 20 20 20 21 21 22
19 19 18 17 19 19 22 20 20 22 22 25 29 32 34 37 40 41 40 44 51 51 34 31 34 35 35 34 32 30 28 25 22 22 22 23 24 24 23 22 22 22 21 21 21 20 20 20 20
17 15 14 13 14 13 12 12 17 19 22 25 30 34 37 40 42 43 44 48 52 51 45 41 33 28 27 25 24 24 23 22 23 24 23 21 20 19 18 18 19 21 22 22 21 20 19 18 17
12 10 8 6 7 9 11 16 19 21 23 25 30 35 40 42 43 46 48 51 52 51 48 44 40 30 20 16 16 19 23 23 24 25 24 22 20 18 16 15 16 18 19 19 19 18 18 17 16
9 11 11 9 9 11 15 19 22 24 26 29 33 36 40 43 44 45 47 48 46 46 47 46 38 32 26 20 19 21 22 23 23 23 24 25 24 21 18 16 15 16 17 17 17 17 17 17 18
11 15 18 18 18 17 21 24 27 29 32 34 36 36 36 38 39 40 40 40 43 45 42 37 31 28 26 21 20 21 20 20 21 21 22 23 24 22 20 19 18 17 17 17 17 17 18 19 19
15 19 22 23 21 22 25 29 32 34 34 34 34 34 33 33 35 36 37 40 42 41 38 33 28 25 24 22 20 19 19 18 19 18 18 18 20 21 20 19 19 19 19 20 21 20 20 20 20
14 19 22 24 24 24 28 32 32 34 34 31 30 30 30 32 34 36 38 39 39 38 36 33 30 27 25 24 21 21 21 17 17 19 20 18 18 19 20 20 20 20 21 21 22 22 22 22 22
11 13 20 22 21 22 24 25 22 22 22 22 24 26 26 29 33 36 37 38 39 39 38 35 33 31 30 29 28 27 25 24 24 24 25 24 21 20 20 21 22 23 23 23 23 24 24 23 24
15 9 9 13 14 16 16 17 17 16 15 19 22 23 25 28 32 37 40 41 41 42 41 41 40 39 39 38 37 34 32 32 32 30 30 29 27 25 23 22 23 24 26 27 27 27 27 26 25
11 9 6 7 11 13 15 16 17 17 19 23 23 24 28 34 38 42 44 44 44 45 47 48 48 47 46 45 44 42 40 39 38 38 36 35 33 31 30 28 26 26 27 30 30 30 30 30 28
14 16 17 16 17 17 19 20 22 25 26 26 27 30 34 39 43 45 47 48 49 50 50 50 50 49 49 48 47 46 45 44 44 44 44 43 42 39 37 36 33 32 31 32 33 33 34 33 31
16 16 15 16 16 18 21 24 26 29 31 33 34 36 39 43 47 51 53 55 56 57 58 56 55 53 53 53 52 51 50 49 49 49 49 50 50 49 47 45 42 40 38 37 37 36 36 34 33
14 14 13 14 15 18 22 27 30 33 35 38 41 44 47 50 52 54 56 59 60 62 63 63 62 60 59 58 58 57 55 54 53 53 53 54 54 54 54 54 52 49 46 45 44 42 40 38 36
15 16 16 17 19 22 27 32 36 38 40 43 46 48 50 51 53 55 57 59 61 63 65 67 68 68 67 67 66 65 63 61 59 58 57 57 57 57 57 57 56 55 53 53 52 49 47 45 42
18 18 17 19 22 26 31 35 39 40 41 43 45 47 50 52 55 58 59 61 62 64 67 70 72 74 75 74 73 71 69 67 65 64 63 62 61 61 60 61 61 60 58 56 56 55 53 51 49
Wind_Direction
152 151 148 148 152 151 134 41 77 202 246 277 287 282 295 316 292 275 288 272 262 258 255 254 258 266 273 282 299 320 330 335 343 353 1 4 3 1 1 1 4 6 7 357 346 341 341 341 339
166 159 156 155 177 204 265 308 260 242 227 251 277 281 287 299 305 300 295 288 277 270 266 265 268 268 271 277 291 303 305 311 330 349 357 355 355 353 346 341 341 343 345 342 341 339 342 344 345
181 177 182 209 251 321 328 304 253 257 246 244 257 270 283 286 289 290 284 282 275 266 267 268 268 266 268 277 285 287 281 274 283 307 322 327 331 334 328 321 318 317 317 321 334 344 349 348 353
198 198 225 268 287 312 332 328 308 278 273 268 259 273 284 298 285 280 282 282 280 274 272 272 270 267 264 267 271 270 268 268 276 289 298 305 308 308 307 305 301 296 296 305 322 336 343 348 349
218 220 232 275 292 305 328 339 332 306 276 255 313 324 308 312 297 291 285 281 281 281 281 277 273 269 265 262 261 263 268 275 282 289 294 298 299 298 296 294 286 278 279 288 302 315 319 323 327
231 229 241 294 314 325 345 345 338 320 302 322 349 344 333 323 313 302 293 287 287 283 277 273 270 269 268 268 269 272 277 283 287 289 291 293 294 292 288 288 284 274 271 277 284 290 295 298 303
244 234 231 273 310 328 348 347 337 325 308 329 347 336 326 308 301 301 299 294 290 285 282 283 284 284 283 281 281 282 285 286 286 287 288 288 287 285 281 280 279 274 272 274 276 277 281 285 289
256 245 209 232 258 307 340 336 319 324 325 332 342 336 326 302 289 291 294 295 293 290 288 286 286 287 288 288 289 290 290 290 289 287 285 283 282 280 277 276 274 273 272 273 275 274 273 277 281
255 246 212 231 253 272 321 319 308 312 315 329 334 328 317 301 293 292 294 299 302 303 301 295 288 285 287 290 292 295 296 297 296 295 292 288 285 282 281 279 276 275 275 276 277 277 275 274 275
259 243 215 230 250 255 276 292 296 302 300 308 314 308 300 299 297 294 294 300 304 306 305 301 295 292 291 292 294 298 300 302 303 300 294 290 288 286 283 279 276 275 274 274 275 277 278 276 273
268 245 219 226 243 251 248 253 272 281 279 284 293 294 296 298 297 292 293 297 301 302 302 300 296 293 292 291 295 300 303 306 308 304 295 287 283 282 281 278 276 276 275 274 275 277 281 281 279
277 266 236 229 238 246 251 249 249 262 272 281 287 288 289 291 292 291 291 292 297 298 296 295 294 294 292 290 293 298 302 301 299 298 292 284 280 281 283 278 275 276 280 279 275 274 276 278 279
272 269 259 249 248 252 256 260 260 260 267 274 279 285 290 291 288 286 286 287 289 284 278 279 283 285 283 280 282 286 290 291 290 293 291 284 282 284 287 281 277 274 273 273 274 274 272 271 272
271 273 272 262 254 253 259 265 269 271 269 271 276 280 282 283 284 285 288 291 294 276 255 248 250 256 259 261 267 275 281 284 289 293 289 286 286 285 282 278 275 269 266 270 275 273 269 266 266
268 264 261 259 254 251 253 258 262 266 270 273 276 277 279 283 287 289 291 294 299 289 257 242 240 239 243 248 257 265 268 274 282 286 285 284 284 283 280 275 272 268 264 268 269 265 266 266 265
267 263 258 260 259 256 253 254 255 261 267 273 276 279 282 286 289 291 294 297 301 302 287 268 260 243 239 244 250 256 264 275 287 292 289 283 282 281 279 273 270 267 262 262 260 257 261 264 266
265 252 250 248 256 252 240 241 253 261 265 276 284 286 285 286 288 292 298 300 304 308 310 310 290 265 256 253 255 263 273 284 293 294 289 285 285 286 282 274 271 265 258 255 253 253 253 256 256
256 241 242 247 271 267 246 243 246 248 254 268 281 285 283 284 289 293 297 300 303 308 311 313 305 298 290 294 299 292 289 287 288 287 287 288 287 286 281 277 271 263 258 254 249 248 250 249 247
235 213 225 236 242 248 241 238 241 246 254 264 274 277 277 280 287 293 298 303 305 307 311 312 307 310 316 321 324 320 300 286 282 284 287 286 281 278 274 269 265 262 258 251 245 248 250 248 245
233 223 229 241 247 245 240 240 245 252 260 267 273 277 275 278 285 292 299 302 305 309 311 311 312 314 321 324 324 325 314 297 289 289 287 281 273 268 266 266 261 258 253 248 245 248 250 250 246
247 235 234 240 250 259 259 258 260 264 271 273 275 278 279 279 284 291 296 300 302 305 308 312 317 322 323 322 321 321 320 302 288 288 289 280 268 260 258 258 257 253 248 244 244 246 248 250 246
252 242 244 245 253 262 267 271 271 275 278 279 277 278 282 285 289 293 295 297 298 301 306 311 314 316 314 313 313 313 315 303 288 289 290 287 274 264 258 255 252 250 248 245 245 247 249 250 254
330 267 254 256 264 270 274 278 291 297 287 283 281 280 284 289 293 295 298 300 300 302 305 308 309 310 309 306 303 302 299 294 289 288 284 281 278 268 259 252 247 246 246 245 246 248 249 252 262
349 327 280 263 272 282 286 297 316 324 302 295 293 290 288 292 295 298 301 303 304 305 306 307 306 305 305 303 300 295 290 285 283 281 279 273 270 269 266 259 251 245 245 246 247 250 252 255 264
349 336 318 285 294 306 309 317 325 320 311 308 305 297 295 298 299 300 302 304 304 304 305 305 304 302 301 299 297 294 289 284 281 277 274 270 267 265 264 261 256 253 251 250 250 252 254 258 263
347 333 327 324 324 320 315 317 315 311 312 311 306 304 304 304 304 304 304 304 302 300 301 301 300 298 295 293 290 288 286 283 279 276 273 269 267 264 261 258 255 253 254 254 253 253 254 256 260
334 330 322 320 317 315 313 312 309 312 312 312 311 308 306 305 305 306 306 305 304 303 303 301 298 296 293 291 289 285 281 278 274 272 269 267 266 264 261 257 256 252 250 251 252 253 254 255 258
321 329 325 323 324 320 315 314 316 320 322 319 316 314 312 311 311 310 308 307 307 305 303 301 300 297 295 292 290 287 283 278 273 268 265 263 262 261 260 259 257 255 250 248 250 251 253 255 257
302 312 320 320 321 320 318 317 320 322 321 319 317 315 314 312 311 310 309 308 306 304 302 301 299 297 295 293 290 287 283 278 275 271 267 262 259 256 256 256 256 255 252 249 248 249 252 254 256
309 318 320 319 318 316 316 316 318 318 318 318 316 315 314 313 312 311 309 307 304 302 299 298 297 296 295 294 291 288 285 280 276 271 267 262 258 255 253 253 254 254 253 250 249 248 249 251 254
Height
5931 5931 5931 5932 5933 5932 5931 5931 5929 5928 5928 5929 5929 5928 5927 5928 5928 5928 5925 5923 5921 5919 5918 5917 5915 5915 5915 5915 5914 5914 5913 5913 5913 5912 5911 5911 5910 5909 5908 5908 5907 5906 5905 5904 5902 5900 5898 5896 5895
5931 5931 5932 5933 5933 5932 5932 5930 5927 5924 5925 5927 5928 5928 5927 5927 5926 5925 5923 5922 5920 5918 5917 5916 5915 5914 5913 5913 5913 5912 5911 5911 5911 5910 5910 5909 5909 5908 5907 5907 5906 5905 5904 5903 5902 5899 5897 5895 5894
5931 5932 5933 5933 5932 5932 5930 5928 5926 5923 5924 5926 5927 5927 5926 5926 5924 5923 5922 5920 5918 5916 5915 5914 5913 5912 5912 5911 5910 5909 5909 5908 5907 5907 5907 5906 5906 5905 5905 5905 5904 5904 5904 5902 5901 5899 5897 5895 5893
5931 5932 5932 5931 5930 5929 5928 5927 5926 5925 5925 5926 5926 5926 5925 5925 5922 5921 5919 5917 5916 5914 5913 5912 5911 5911 5910 5909 5907 5906 5905 5905 5904 5903 5903 5903 5902 5902 5902 5902 5902 5902 5902 5900 5899 5897 5896 5894 5893
5929 5930 5930 5929 5928 5927 5925 5924 5924 5924 5924 5923 5924 5924 5925 5924 5921 5918 5917 5915 5913 5912 5911 5911 5910 5909 5907 5906 5905 5904 5903 5902 5901 5900 5900 5899 5899 5898 5898 5898 5898 5898 5898 5898 5896 5895 5894 5893 5892
5927 5928 5929 5928 5924 5923 5922 5922 5922 5922 5922 5921 5921 5923 5924 5924 5921 5918 5916 5914 5913 5911 5910 5909 5908 5907 5905 5904 5903 5902 5901 5900 5899 5897 5896 5895 5894 5893 5893 5893 5893 5893 5893 5893 5893 5892 5891 5890 5889
5924 5926 5927 5925 5922 5920 5920 5920 5920 5920 5918 5917 5918 5920 5921 5922 5921 5918 5916 5913 5912 5910 5909 5908 5907 5905 5904 5903 5901 5900 5898 5896 5895 5893 5892 5890 5888 5887 5887 5887 5887 5887 5887 5888 5888 5888 5887 5886 5885
5920 5924 5925 5922 5918 5917 5917 5917 5917 5918 5916 5915 5915 5917 5918 5919 5919 5917 5915 5912 5910 5909 5908 5907 5906 5904 5902 5900 5897 5895 5892 5890 5888 5887 5886 5884 5883 5881 5881 5881 5881 5881 5881 5882 5882 5882 5882 5882 5880
5916 5921 5922 5918 5914 5913 5913 5913 5912 5913 5913 5913 5913 5915 5917 5917 5917 5916 5914 5910 5908 5908 5906 5904 5902 5900 5897 5894 5891 5889 5887 5885 5883 5881 5881 5879 5877 5876 5876 5875 5875 5875 5875 5876 5876 5876 5876 5875 5874
5913 5917 5919 5915 5912 5910 5910 5911 5909 5909 5909 5909 5911 5912 5913 5913 5913 5913 5911 5909 5906 5905 5904 5901 5898 5895 5892 5889 5886 5884 5881 5880 5878 5876 5874 5873 5871 5871 5870 5869 5868 5867 5868 5869 5869 5869 5868 5866 5866
5909 5912 5913 5911 5909 5907 5907 5908 5908 5907 5906 5908 5909 5909 5908 5908 5908 5907 5906 5906 5903 5900 5898 5896 5893 5890 5887 5884 5881 5878 5875 5874 5872 5870 5868 5867 5865 5864 5863 5862 5861 5860 5861 5862 5863 5863 5861 5859 5858
5906 5908 5908 5907 5905 5903 5903 5905 5907 5905 5905 5906 5906 5905 5904 5904 5903 5901 5899 5898 5897 5893 5891 5889 5887 5885 5882 5878 5875 5872 5869 5868 5867 5865 5863 5861 5860 5858 5858 5857 5855 5853 5854 5856 5856 5856 5854 5853 5851
5902 5903 5904 5905 5903 5901 5900 5901 5904 5904 5903 5902 5901 5900 5900 5898 5895 5891 5888 5886 5885 5882 5879 5878 5877 5876 5873 5870 5867 5865 5863 5862 5861 5860 5858 5856 5854 5853 5854 5853 5851 5849 5849 5850 5850 5850 5850 5849 5847
5898 5898 5899 5901 5901 5900 5898 5898 5898 5898 5898 5897 5896 5895 5892 5889 5886 5882 5880 5877 5873 5868 5861 5860 5860 5860 5859 5859 5858 5858 5858 5857 5856 5855 5853 5850 5849 5848 5847 5846 5845 5845 5845 5846 5845 5845 5844 5843 5842
5892 5893 5893 5893 5893 5893 5893 5893 5894 5892 5891 5891 5889 5887 5885 5882 5878 5876 5873 5869 5865 5855 5846 5848 5847 5844 5844 5846 5849 5849 5850 5849 5849 5848 5846 5845 5843 5841 5841 5840 5840 5839 5839 5840 5840 5839 5839 5838 5838
5888 5888 5889 5888 5887 5886 5887 5888 5888 5887 5887 5885 5884 5882 5879 5875 5871 5868 5866 5863 5860 5851 5842 5843 5840 5833 5832 5836 5838 5839 5840 5840 5840 5840 5839 5837 5836 5835 5833 5832 5832 5832 5832 5833 5833 5833 5832 5832 5832
5883 5884 5884 5885 5883 5882 5883 5884 5881 5882 5883 5881 5879 5877 5872 5869 5866 5863 5862 5859 5855 5848 5842 5842 5833 5827 5827 5828 5831 5833 5832 5831 5831 5831 5830 5829 5828 5827 5827 5826 5825 5825 5826 5826 5827 5827 5826 5826 5827
5881 5881 5880 5881 5882 5881 5881 5878 5877 5878 5879 5879 5877 5873 5867 5863 5861 5859 5857 5855 5850 5846 5842 5839 5834 5826 5822 5824 5825 5825 5825 5824 5824 5823 5822 5821 5821 5820 5819 5819 5819 5819 5820 5820 5820 5821 5821 5821 5822
5878 5877 5877 5878 5879 5879 5877 5876 5875 5876 5876 5876 5875 5871 5865 5860 5858 5856 5853 5850 5845 5841 5837 5834 5827 5821 5818 5820 5819 5819 5819 5819 5818 5816 5815 5814 5814 5813 5813 5813 5813 5813 5814 5814 5815 5816 5816 5817 5817
5874 5874 5874 5874 5875 5875 5873 5873 5873 5872 5872 5872 5872 5869 5866 5862 5858 5854 5850 5845 5841 5837 5833 5828 5822 5818 5815 5814 5814 5814 5813 5812 5810 5809 5808 5807 5807 5807 5807 5807 5807 5807 5807 5808 5809 5810 5811 5812 5813
5872 5871 5870 5870 5871 5871 5870 5869 5869 5868 5867 5866 5865 5864 5862 5859 5856 5852 5847 5842 5837 5832 5828 5823 5818 5814 5811 5810 5810 5809 5807 5806 5805 5804 5803 5802 5801 5801 5800 5800 5800 5800 5801 5803 5804 5804 5805 5806 5807
5869 5868 5867 5867 5867 5866 5865 5862 5863 5861 5860 5859 5858 5857 5855 5852 5849 5845 5840 5835 5830 5826 5822 5817 5813 5810 5807 5806 5804 5802 5801 5801 5801 5800 5799 5798 5796 5794 5793 5793 5794 5795 5796 5797 5799 5800 5800 5801 5801
5865 5865 5864 5863 5863 5862 5860 5858 5859 5857 5855 5854 5852 5850 5848 5844 5840 5836 5831 5826 5822 5818 5814 5810 5807 5803 5801 5798 5797 5795 5794 5794 5794 5794 5793 5791 5790 5788 5787 5787 5787 5788 5790 5791 5792 5794 5795 5795 5796
5862 5863 5862 5861 5860 5859 5858 5856 5854 5851 5850 5848 5846 5843 5840 5836 5832 5826 5822 5818 5813 5808 5804 5801 5797 5794 5792 5790 5788 5787 5786 5785 5784 5784 5784 5783 5782 5781 5780 5780 5780 5780 5782 5783 5785 5786 5788 5788 5789
5863 5863 5862 5860 5858 5856 5853 5851 5850 5846 5844 5843 5840 5836 5832 5827 5823 5818 5812 5807 5802 5798 5794 5790 5787 5784 5781 5779 5777 5775 5775 5774 5773 5772 5772 5772 5771 5771 5772 5771 5771 5772 5773 5774 5776 5777 5779 5780 5781
5863 5861 5860 5857 5855 5852 5849 5847 5845 5841 5839 5836 5832 5828 5823 5818 5812 5807 5802 5797 5792 5787 5783 5779 5775 5770 5767 5765 5764 5762 5761 5760 5759 5759 5758 5758 5759 5759 5759 5760 5761 5762 5763 5765 5767 5768 5770 5771 5772
5861 5858 5856 5854 5852 5850 5846 5843 5839 5835 5831 5828 5823 5819 5813 5807 5801 5795 5788 5782 5776 5771 5766 5762 5759 5755 5751 5748 5746 5745 5744 5743 5743 5742 5742 5742 5743 5744 5745 5746 5748 5750 5752 5754 5756 5758 5759 5761 5762
5859 5856 5854 5851 5849 5846 5843 5839 5835 5830 5824 5818 5812 5806 5800 5794 5788 5782 5774 5767 5760 5753 5746 5741 5738 5736 5734 5731 5728 5725 5723 5723 5723 5723 5723 5723 5724 5725 5727 5729 5732 5735 5738 5740 5743 5746 5748 5750 5751
5855 5854 5851 5849 5846 5842 5838 5836 5830 5826 5820 5813 5805 5798 5791 5785 5778 5771 5763 5755 5747 5738 5730 5723 5717 5712 5709 5707 5704 5703 5702 5701 5701 5701 5701 5703 5704 5706 5708 5710 5713 5716 5721 5725 5729 5732 5735 5737 5740
5851 5850 5848 5845 5842 5838 5833 5832 5824 5820 5813 5807 5799 5791 5783 5775 5767 5759 5750 5742 5733 5725 5717 5708 5699 5692 5685 5680 5676 5674 5673 5673 5674 5676 5677 5679 5681 5684 5686 5689 5693 5696 5701 5706 5712 5717 5721 5724 5727